Regional Weather Roundup
Issued by NWS

Home | Current Version | Previous Version | Graphics & Text | Print | Product List | Glossary On
Versions: 1 2 3 4 5 6 7 8 9 10 11 12 13 14 15 16 17 18 19 20 21 22 23 24 25 26 27 28 29 30 31 32 33 34 35 36 37 38 39 40 41 42 43 44 45 46 47 48 49 50
605
ASUS45 KTFX 101510
RWRMT
MONTANA REGIONAL WEATHER ROUNDUP
NATIONAL WEATHER SERVICE GREAT FALLS MT
800 AM MST SUN DEC 10 2017

NOTE: "FAIR" INDICATES FEW OR NO CLOUDS BELOW 12000 FEET WITH NO
SIGNIFICANT WEATHER AND/OR OBSTRUCTIONS TO VISIBILITY.

MTZ001>007-043-101600-
WEST OF THE DIVIDE

CITY           SKY/WX    TMP DP  RH WIND       PRES   REMARKS
KALISPELL      CLOUDY    24  21  88 NW3       30.62F
MISSOULA       CLOUDY    19  16  88 CALM      30.66S FOG
BUTTE          FAIR       7   1  76 CALM      30.53F
MULLAN PASS    FAIR      34   7  32 W5        30.49S
ANACONDA         N/A     10   7  85 SW5       30.53F
DEER LODGE       N/A      5   1  85 CALM      30.57S
EUREKA           N/A    N/A N/A N/A MISG      30.63F
HAMILTON         N/A     14  10  85 CALM      30.62S VSB 1/2
LIBBY            N/A     27  21  80 CALM      30.62F
PLAINS           N/A     25  16  68 E6        30.62R WCI  18
RONAN            N/A     24  20  85 SE2       30.60S
$$

MTZ008-052>055-101600-
SOUTHWEST MONTANA

CITY           SKY/WX    TMP DP  RH WIND       PRES   REMARKS
BOZEMAN        FAIR       6   2  83 SE5       30.53R
DILLON         FAIR      15   6  67 SE10      30.53S WCI   2
W YELLOWSTONE  FOG        0  -6  78 CALM      30.63S VSB<1/4
ENNIS          CLOUDY    23  10  58 S7        30.57F WCI  15
THREE FORKS      N/A      3  -2  80 CALM      30.45S
TWIN BRIDGES     N/A     16   5  61 CALM      30.46R
$$

MTZ009-010-012-014-046-048-049-054-101600-
EAST SLOPES AND CENTRAL MONTANA

CITY           SKY/WX    TMP DP  RH WIND       PRES   REMARKS
CUT BANK       FAIR      46   5  18 W30G39    30.24F
GREAT FALLS    FAIR      41   9  26 SW18      30.29F
MALMSTROM AFB  FAIR      41  11  28 SW21      30.28F
HELENA         FAIR      13  11  92 CALM      30.51S
BOWMANS CRNR   FAIR      35  11  37 S22       30.32F WCI  23
CHOTEAU          N/A     48  -2  12 S7        30.30S
FAIRFIELD      FAIR      39   8  28 SW23G33   30.28F WCI  28
POWER          FAIR      39   8  27 SW15      30.29S WCI  31
RAYNESFORD     FAIR      49   5  16 SW21G28   30.28F
ULM            FAIR      35  14  42 S10       30.32F WCI  27
$$

MTZ011-013-016-021-045-047-050-051-101600-
NORTH CENTRAL MONTANA

CITY           SKY/WX    TMP DP  RH WIND       PRES   REMARKS
HAVRE          FAIR      42  11  28 SW24      30.20S
LEWISTOWN      FAIR      39  16  39 SW17      30.27F WCI  30
N BAR RANCH    FAIR      46  -2  13 NW5G12    30.27S
CHINOOK          N/A     39  10  30 NW6       30.19R
DENTON         FAIR      46   6  19 MISG      30.21F
GEYSER         FAIR      44   7  21 W16       30.25F
GRASS RANGE    FAIR      46   8  21 W17       30.19S
STANFORD       FAIR      45   7  21 S3        30.27F
WINIFRED       FAIR      43   6  22 W14       30.22F
$$

MTZ017>020-022>027-061-062-101600-
NORTHEAST MONTANA

CITY           SKY/WX    TMP DP  RH WIND       PRES   REMARKS
GLASGOW        FAIR      31  12  45 NW3       30.16F
GLENDIVE       FAIR      36  14  40 W12       30.16S WCI  28
JORDAN           N/A     30  12  47 W10       30.19F WCI  21
SIDNEY         FAIR      38  16  40 W20       30.10S WCI  28
WOLF POINT     FAIR      29  14  53 SW10      30.14F WCI  20
MALTA          CLEAR     23  14  68 W7        30.17S WCI  15
PLENTYWOOD       N/A     36  21  55 CALM      30.07R
POPLAR           N/A     30  12  47 W10       30.13F WCI  21
SCOBEY           N/A     27  10  48 CALM      30.07S
$$

MTZ028>42-056>058-101600-
SOUTHCENTRAL AND SOUTHEAST MONTANA

CITY           SKY/WX    TMP DP  RH WIND       PRES   REMARKS
BAKER          FAIR      32  16  51 W15       30.19S WCI  22
BILLINGS       FAIR      31  16  54 SW15      30.31F WCI  20
LIVINGSTON     FAIR      42   8  24 SW26G37   30.43R
MILES CITY     FAIR      31  14  49 W7        30.23S WCI  24
BIG TIMBER     CLEAR     41   7  24 W39G49    30.36R
EKALAKA          N/A     37   8  30 SW6       30.18R
FORSYTH          N/A     34  12  40 SW6       30.24F WCI  29
HARLOWTON      FAIR      41   9  26 NW32G39   30.31F
LAUREL           N/A     30  16  55 SW14      30.33S WCI  20
ROUNDUP          N/A     39   7  27 SW12      30.16S WCI  32
$$

REGIONAL REPORTS...DAKOTAS

CITY           SKY/WX    TMP DP  RH WIND       PRES   REMARKS
WILLISTON      FAIR      33  20  58 SW6       30.07F WCI  28
MINOT          FAIR      37  23  56 W15       29.99S WCI  28
DICKINSON      CLOUDY    35  18  49 W20       30.07S WCI  24
BEACH          FAIR      32  14  47 W16       30.16S WCI  21
CROSBY         MOCLDY    34  23  64 W12       30.03S WCI  25
TIOGA          FAIR      30  21  69 W9        30.04F WCI  22
BISMARCK       FAIR      33  21  61 W7        30.06S WCI  27
GRAND FORKS    MOCLDY    19  16  88 NW5       30.02R
FARGO          FAIR      17  15  92 N6        30.03S WCI   9
BUFFALO SD       N/A     33  16  49 W13       30.12  WCI  24
RAPID CITY     FAIR      44   7  21 NW9       30.21F
$$

REGIONAL REPORTS...WYOMING/IDAHO/WASHINGTON

CITY           SKY/WX    TMP DP  RH WIND       PRES   REMARKS
GILLETTE       FAIR      33  11  39 N6        30.31R WCI  28
SHERIDAN       FAIR      27  11  51 CALM      30.31R
BUFFALO WY     FAIR      39   0  19 W6        30.32S
CODY           FAIR      22  10  60 CALM      30.38S
YELLOWSTONE LA   N/A      3   1  91 CALM      30.60S
IDAHO FALLS    FAIR       7   4  87 N12       30.66R WCI  -8
SALMON         CLOUDY    16  13  88 E6        30.78F WCI   7
BOISE          CLOUDY    25  20  81 SE7       30.72S WCI  17
SPOKANE        CLOUDY    26  24  92 NE6       30.64F WCI  19
$$

REGIONAL REPORTS...ALBERTA

CITY           SKY/WX    TMP DP  RH WIND       PRES   REMARKS
EDMONTON       MOCLDY    39  23  52 SW8       30.06F
CALGARY        MOCLDY    54   7  15 W15       30.17R
LETHBRIDGE     CLOUDY    48   9  20 SW23G29   30.17S
MEDICINE HAT   CLOUDY    37  14  38 S5        30.14F
$$

REGIONAL REPORTS...SASKATCHEWAN

CITY           SKY/WX    TMP DP  RH WIND       PRES   REMARKS
SWIFT CURRENT  CLEAR     36  16  44 W16G22    30.09R WCI  26
REGINA         MOCLDY    30  23  74 W10       30.00R WCI  21
SASKATOON      MOCLDY    28  23  80 W6        30.01R WCI  22
$$




USA.gov is the U.S. government's official web portal to all federal, state and local government web resources and services.